This demonstration page uses our WeatherBlox Daily Observations layout. Learn more.

Left ArrowRight Arrow

38.20091, -84.87328

Hourly Observations for September 1, 2022

Temp ( °F °C ) Dew Point ( °F °C ) Humidity (%) Winds ( mph kmh ) Pressure ( in mb ) Visibility ( mi km ) Precip ( " mm )
12:53 am 00:53 Clear 63 17.2 61 16.1 93 93 Calm 30.05 1018 10 16 0.00 0.00
1:53 am 01:53 Clear 62 16.7 60 15.6 93 93 Calm 30.06 1018 10 16 0.00 0.00
2:53 am 02:53 Clear 61 16.1 59 15 93 93 Calm 30.05 1018 10 16 0.00 0.00
3:53 am 03:53 Clear 59 15 57 13.9 93 93 Calm 30.04 1017 10 16 0.00 0.00
4:53 am 04:53 Clear 60 15.6 58 14.4 93 93 Calm 30.05 1018 10 16 0.00 0.00
5:53 am 05:53 Clear 59 15 57 13.9 93 93 Calm 30.06 1018 10 16 0.00 0.00
6:53 am 06:53 Clear with Mist and Fog 57 13.9 55 12.8 93 93 Calm 30.06 1018 4 6 0.00 0.00
7:53 am 07:53 Sunny 60 15.6 57 13.9 90 90 Calm 30.08 1019 10 16 0.00 0.00
8:53 am 08:53 Sunny 66 18.9 62 16.7 87 87 Calm 30.10 1019 10 16 0.00 0.00
9:53 am 09:53 Sunny 73 22.8 63 17.2 71 71 Calm 30.11 1020 10 16 0.00 0.00
10:53 am 10:53 Sunny 77 25 61 16.1 58 58 Calm 30.11 1020 10 16 0.00 0.00
11:53 am 11:53 Sunny 80 26.7 63 17.2 56 56 VRB 5 7 30.11 1020 10 16 0.00 0.00
12:53 pm 12:53 Mostly Sunny 82 27.8 62 16.7 51 51 SE 7 11 30.10 1019 10 16 0.00 0.00
1:53 pm 13:53 Mostly Sunny 83 28.3 61 16.1 48 48 NNE 6 9 30.09 1019 10 16 0.00 0.00
2:53 pm 14:53 Mostly Sunny 84 28.9 62 16.7 48 48 SSE 3 6 30.07 1018 10 16 0.00 0.00
3:53 pm 15:53 Mostly Sunny 84 28.9 61 16.1 46 46 ENE 5 7 30.06 1018 10 16 0.00 0.00
4:53 pm 16:53 Partly Cloudy 82 27.8 60 15.6 47 47 ENE 6 9 30.04 1017 10 16 0.00 0.00
5:53 pm 17:53 Mostly Sunny 84 28.9 61 16.1 46 46 E 7 11 30.03 1017 10 16 0.00 0.00
6:53 pm 18:53 Sunny 83 28.3 61 16.1 48 48 E 6 9 30.03 1017 10 16 0.00 0.00
7:53 pm 19:53 Sunny 79 26.1 61 16.1 54 54 Calm 30.02 1017 10 16 0.00 0.00
8:53 pm 20:53 Clear 69 20.6 64 17.8 84 84 Calm 30.03 1017 10 16 0.00 0.00
9:53 pm 21:53 Clear 69 20.6 63 17.2 81 81 Calm 30.04 1017 10 16 0.00 0.00
10:53 pm 22:53 Clear 67 19.4 63 17.2 87 87 Calm 30.05 1018 10 16 0.00 0.00
11:53 pm 23:53 Clear 66 18.9 62 16.7 87 87 Calm 30.05 1018 10 16 0.00 0.00

Powered by AerisWeather